Complete Sellout of Sandwich Shop (formerly Jimmy John's) near Sacramento, CA

Lot #0111: Kairak 3-Door BLU Refrigerated Prep Table

Bidding is closed.
High Bid:$1,350.00
NA
Bidding Ended: Thu, Sep 19  10:09:30 am PT
High Bidder: HARPAL
Bid Increment: $50.00
Starting Bid: $5.00
Item Location: Citrus Heights, CA 95610
Item has been viewed 259 times.

Kairak 3-Door BLU Prep Self-Contained and Refrigerated Prep Table (Table ONLY)

  • Size: 89"×33"×55"
  • Contents NOT included
  • Quantity: 1
  • Manufacturer: Kairak
  • Model Number: KBP-91S
  • Serial Number: K51983F16
  • Power Source: 115 volt/13.6 amp
  • Width: 33"
  • Length: 89"
  • Height: 55"
 
Bid Date Bid Amount Bidder
Sep 19, 2019 - 10:07:30 AM $1,350.00 iHARPAL
Sep 19, 2019 - 10:07:31 AM $1,350.00 iAllison.lo
Sep 19, 2019 - 10:06:38 AM $1,300.00 iHARPAL
Sep 19, 2019 - 10:06:39 AM $1,300.00 iAllison.lo
Sep 19, 2019 - 10:05:37 AM $1,250.00 iHARPAL
Sep 19, 2019 - 10:05:37 AM $1,200.00 iAllison.lo
Sep 19, 2019 - 10:05:29 AM $1,150.00 iAllison.lo
Sep 19, 2019 - 10:05:20 AM $1,100.00 iHARPAL
Sep 19, 2019 - 10:05:21 AM $1,100.00 iAllison.lo
Sep 19, 2019 - 10:05:11 AM $1,010.00 iHARPAL
Sep 19, 2019 - 10:05:11 AM $1,000.00 iAllison.lo
Sep 19, 2019 - 10:05:03 AM $980.00 iHARPAL
Sep 19, 2019 - 10:05:03 AM $970.00 iAllison.lo
Sep 19, 2019 - 9:01:57 AM $960.00 iHARPAL
Sep 19, 2019 - 9:01:57 AM $950.00 iAllison.lo
Sep 19, 2019 - 8:51:12 AM $910.00 iAllison.lo
Sep 19, 2019 - 8:51:12 AM $900.00 iHARPAL
Sep 19, 2019 - 7:13:50 AM $810.00 iHARPAL
Sep 19, 2019 - 7:13:50 AM $800.00 iAllison.lo
Sep 19, 2019 - 7:02:39 AM $760.00 iAllison.lo
Sep 19, 2019 - 7:02:39 AM $750.00 iHARPAL
Sep 19, 2019 - 5:30:41 AM $610.00 iHARPAL
Sep 19, 2019 - 5:30:41 AM $600.00 iAllison.lo
Sep 18, 2019 - 11:20:45 PM $510.00 iAllison.lo
Sep 18, 2019 - 11:20:25 PM $500.00 iHARPAL
Sep 18, 2019 - 11:20:26 PM $500.00 iAllison.lo
Sep 18, 2019 - 11:20:15 PM $360.00 iHARPAL
Sep 18, 2019 - 11:20:15 PM $350.00 iAllison.lo
Sep 18, 2019 - 11:20:08 PM $340.00 iHARPAL
Sep 18, 2019 - 11:20:08 PM $330.00 iAllison.lo
Sep 18, 2019 - 11:19:59 PM $320.00 iHARPAL
Sep 18, 2019 - 11:19:59 PM $310.00 iAllison.lo
Sep 18, 2019 - 11:12:38 PM $300.00 iHARPAL
Sep 18, 2019 - 11:12:38 PM $290.00 iAllison.lo
Sep 18, 2019 - 11:12:27 PM $280.00 iHARPAL
Sep 18, 2019 - 11:12:27 PM $270.00 iAllison.lo
Sep 18, 2019 - 4:31:25 PM $260.00 iHARPAL
Sep 18, 2019 - 4:31:25 PM $250.00 idustinmiller1984
Sep 18, 2019 - 4:31:20 PM $240.00 iHARPAL
Sep 18, 2019 - 4:31:20 PM $230.00 idustinmiller1984
Sep 18, 2019 - 8:54:51 AM $220.00 iHARPAL
Sep 18, 2019 - 8:54:51 AM $210.00 idustinmiller1984
Sep 18, 2019 - 8:47:58 AM $160.00 iHARPAL
Sep 18, 2019 - 8:47:58 AM $150.00 idustinmiller1984
Sep 17, 2019 - 11:04:46 PM $135.00 idustinmiller1984
Sep 17, 2019 - 3:26:08 PM $125.00 ibeautifulplague
Sep 17, 2019 - 3:26:08 PM $120.00 idustinmiller1984
Sep 17, 2019 - 2:50:26 PM $105.00 idustinmiller1984
Sep 17, 2019 - 2:26:06 PM $100.00 ibeautifulplague
Sep 17, 2019 - 2:26:07 PM $100.00 idustinmiller1984
Sep 17, 2019 - 2:25:56 PM $15.00 ibeautifulplague
Sep 17, 2019 - 2:25:56 PM $10.00 idustinmiller1984
Sep 17, 2019 - 10:50:33 AM $5.00 ibeautifulplague
Click on any picture to see a larger image.